Location: Fosso delle Piantate Lunghe
(43.5167°N, 13.4833°E)
Time: 01:24:02
(UTC+00:00)

Daily predictions for brighter satellites

Satellite Brightness Start Highest point End
(mag) Time Altitude Azimuth Time Altitude Azimuth Time Altitude Azimuth
Nadezhda 2 Rocket 4.4 00:04:33 52° SSW 00:06:06 77° W 00:12:14 10° N
ATLAS CENTAUR R/B 4.2 00:04:07 10° N 00:06:12 19° NE 00:09:33 10° E
GEOS 3 Rocket 3.5 00:07:39 53° SSE 00:08:55 81° SW 00:14:12 10° NW
Cosmos 1726 4.5 00:09:37 10° NW 00:10:54 15° WNW 00:10:54 15° WNW
COSMOS 2455 2.9 00:11:39 46° SW 00:13:27 72° WNW 00:19:30 10° NNE
Cosmos 2058 Rocket 2.9 00:09:06 10° N 00:13:32 88° W 00:13:46 81° S
Meteor 1-29 4.0 00:10:58 10° N 00:13:32 39° NW 00:13:32 39° NW
Cosmos 2084 4.4 00:15:46 36° ESE 00:15:46 36° ESE 00:19:47 10° NE
Cosmos 2228 3.8 00:11:58 10° NNW 00:15:32 39° WNW 00:15:32 39° WNW
SJ 16-02 3.9 00:14:06 10° NNE 00:17:15 19° ENE 00:20:22 10° ESE
SL-14 R/B 3.2 00:18:39 76° NNW 00:18:39 76° NNW 00:22:17 10° N
IRAS Rocket 4.2 00:17:54 52° S 00:19:15 75° WSW 00:24:51 10° NNW
Okean 1-7 Rocket 3.6 00:22:03 63° WSW 00:22:20 65° W 00:26:49 10° N
Cosmos 1174 4.4 00:23:33 40° NNW 00:23:33 40° NNW 00:26:34 10° NNE
Cosmos 921 Rocket 2.9 00:23:34 69° SE 00:23:48 71° ESE 00:28:05 10° NNE
Cosmos 1300 2.7 00:21:27 10° N 00:25:04 79° NNW 00:25:04 79° NNW
BREEZE M DEB (TANK) 3.8 00:26:49 30° N 00:27:06 31° NNE 00:30:14 10° E
COSMOS 2487 4.5 00:25:56 10° NW 00:27:18 19° WNW 00:27:18 19° WNW
Meteor 2-16 Rocket 4.4 00:27:44 45° S 00:29:47 88° W 00:35:57 10° N
Cosmos 1626 Rocket 3.7 00:29:36 55° SE 00:30:12 63° E 00:34:30 10° NNE
Cosmos 1626 2.7 00:34:31 47° WNW 00:34:31 47° WNW 00:37:51 10° N
Cosmos 2219 4.1 00:28:45 10° NNW 00:34:14 47° ENE 00:39:39 10° SE
STARLINK-60 4.0 00:36:27 41° NNW 00:36:27 41° NNW 00:39:25 10° NE
FALCON 9 R/B 3.5 00:38:25 34° SW 00:41:37 52° S 01:02:56 10° ESE
Nadezhda 1 Rocket 3.9 00:36:45 10° N 00:42:55 89° W 00:45:52 34° S
MOZ.5/SAFIR/RUBIN 5/SL-8 3.6 00:44:16 52° S 00:45:21 78° WSW 00:50:00 10° NNW
UNK 3.7 00:44:00 41° SSE 00:45:37 79° ENE 00:50:15 10° N
Cosmos 220 Rocket 3.9 00:46:16 61° SSW 00:47:01 87° WNW 00:51:29 10° NNE
STARLINK-1341 4.5 00:50:03 30° ESE 00:50:03 30° ESE 00:52:37 10° ENE
Cosmos 2297 Rocket 3.0 00:44:24 10° NNW 00:49:54 50° ENE 00:55:23 10° SE
STARLINK-1321 4.5 00:51:10 27° E 00:51:10 27° E 00:53:06 10° ENE
STARLINK-1358 4.5 00:51:31 27° E 00:51:31 27° E 00:53:28 10° ENE
STARLINK-1332 4.5 00:51:49 27° E 00:51:49 27° E 00:53:47 10° ENE
STARLINK-1348 4.4 00:52:10 27° ESE 00:52:10 27° ESE 00:54:09 10° ENE
STARLINK-1374 4.4 00:51:59 31° ESE 00:51:59 31° ESE 00:54:39 10° ENE
SL-4 R/B 2.9 00:49:12 29° W 00:51:30 56° NNW 00:56:10 10° NE
AQUA 4.2 00:46:50 10° NNE 00:51:32 55° E 00:53:18 35° SSE
STARLINK-1330 4.4 00:52:29 28° ESE 00:52:29 28° ESE 00:54:29 10° ENE
STARLINK-1363 4.4 00:52:48 28° ESE 00:52:48 28° ESE 00:54:48 10° ENE
Cosmos 1437 3.8 00:52:48 35° NW 00:52:48 35° NW 00:55:01 10° N
STARLINK-1337 4.4 00:53:07 28° ESE 00:53:07 28° ESE 00:55:09 10° ENE
STARLINK-1342 4.4 00:53:27 29° ESE 00:53:27 29° ESE 00:55:30 10° ENE
Cosmos 1812 Rocket 3.8 00:48:17 10° N 00:52:46 70° E 00:54:29 36° SSE
STARLINK-1364 4.3 00:53:47 29° ESE 00:53:47 29° ESE 00:55:51 10° ENE
CZ-4B R/B 3.8 00:47:58 10° NNE 00:53:06 64° ESE 00:55:16 34° S
STARLINK-1376 4.3 00:54:07 29° ESE 00:54:07 29° ESE 00:56:12 10° ENE
STARLINK-1339 4.3 00:54:00 33° ESE 00:54:00 33° ESE 00:56:45 10° ENE
STARLINK-1360 4.3 00:54:22 30° ESE 00:54:22 30° ESE 00:56:28 10° ENE
STARLINK-1361 4.3 00:54:48 30° ESE 00:54:48 30° ESE 00:56:54 10° ENE
STARLINK-1367 4.3 00:55:02 31° ESE 00:55:02 31° ESE 00:57:13 10° ENE
STARLINK-1366 4.2 00:55:25 31° ESE 00:55:25 31° ESE 00:57:33 10° ENE
STARLINK-1377 4.2 00:56:00 35° ESE 00:56:00 35° ESE 00:58:52 10° ENE
STARLINK-1353 4.1 00:57:56 36° ESE 00:57:56 36° ESE 01:00:51 10° ENE
ATLAS CENTAUR R/B 2.8 00:56:56 24° W 00:58:29 31° NW 01:02:12 10° NNE
SL-16 R/B 2.4 00:56:01 30° S 00:59:19 76° WSW 01:05:30 10° NNW
STARLINK-1375 4.0 00:59:43 38° SE 00:59:43 38° SE 01:02:44 10° ENE
Timation 2 Rocket 4.0 00:55:38 10° NW 01:01:48 56° WSW 01:04:30 32° S
STARLINK-1350 3.9 01:01:59 41° SE 01:01:59 41° SE 01:05:07 10° ENE
FALCON 9 DEB 3.0 01:02:08 77° W 01:02:19 83° NW 01:05:48 10° NE
BREEZE-M R/B 2.7 01:01:07 42° WSW 01:02:31 85° NNW 01:05:32 10° ENE
Cosmos 1602 Rocket 3.4 01:01:58 50° SSW 01:02:59 74° W 01:07:19 10° N
STARLINK-1352 3.7 01:04:09 43° SE 01:04:09 43° SE 01:07:27 10° ENE
OE (NEXTSAT) 4.5 01:03:39 54° WNW 01:04:17 72° NNW 01:07:46 10° ENE
STARLINK-29 3.6 01:04:34 43° WNW 01:04:59 46° NNW 01:08:05 10° NE
STARLINK-1368 3.6 01:06:13 46° SE 01:06:14 46° SE 01:09:38 10° ENE
Cosmos 1455 2.7 01:04:01 10° N 01:07:43 54° E 01:09:23 28° SE
STARLINK-1369 3.5 01:08:12 48° SE 01:08:16 48° SE 01:11:39 10° ENE
BREEZE-M DEB (TANK) 3.1 01:09:30 30° E 01:09:30 30° E 01:10:53 10° ENE
ATLAS 3B R/B 3.0 01:02:42 10° NW 01:09:09 46° WSW 01:12:43 26° S
STARLINK-1372 3.5 01:10:25 50° SSE 01:10:35 50° SE 01:14:01 10° ENE
IRS-1D 3.9 01:07:01 10° NNE 01:12:20 63° ESE 01:15:17 26° S
STARLINK-1378 3.4 01:12:32 51° SSE 01:12:47 53° SE 01:16:15 10° ENE
CENTAUR R/B 4.1 01:06:14 10° WNW 01:12:51 27° WSW 01:14:47 25° SW
STARLINK-1329 3.4 01:12:59 51° SSE 01:13:16 53° SE 01:16:44 10° ENE
BREEZE-M DEB (TANK) 3.1 01:12:39 19° NW 01:13:42 26° NNW 01:15:47 10° NE
GP-B 3.3 01:09:28 10° N 01:13:54 67° E 01:16:11 28° SSE
STARLINK-1365 3.3 01:13:46 54° SSE 01:14:05 57° SE 01:17:35 10° ENE
STARLINK-1379 3.3 01:14:39 52° SSE 01:14:59 55° SE 01:18:28 10° ENE
Meteor 2-1 Rocket 4.1 01:09:38 10° NNW 01:15:08 70° W 01:18:03 28° S
Cosmos 1745 Rocket 4.3 01:12:45 31° SW 01:15:26 50° WNW 01:21:24 10° N
STARLINK-1362 3.3 01:15:11 53° SSE 01:15:32 56° SE 01:19:01 10° ENE
Cosmos-2242 3.6 01:13:10 10° N 01:17:21 53° ENE 01:20:32 16° SSE
STARLINK-1373 3.3 01:17:22 53° S 01:17:49 59° SE 01:21:20 10° ENE
STARLINK-1390 3.3 01:19:27 53° S 01:19:59 62° SE 01:23:29 10° ENE
RESURS DK-1 3.7 01:19:17 23° W 01:20:41 29° NW 01:24:20 10° N
SL-08 R/B 4.4 01:16:28 10° SE 01:20:55 44° ENE 01:25:20 10° N
Cosmos 2181 Rocket 4.2 01:17:39 10° N 01:24:05 75° E 01:30:28 10° SSE
Cosmos 1356 Rocket 4.2 01:21:33 10° NNW 01:25:16 32° W 01:25:49 31° WSW
Cosmos 2227 Rocket 2.3 01:19:51 10° NNW 01:25:35 81° ENE 01:31:15 10° SSE
Cosmos 1763 Rocket 3.6 01:23:45 27° S 01:26:31 68° ESE 01:31:35 10° NNE
Cosmos 1697 Rocket 3.3 01:23:11 21° S 01:26:46 49° ESE 01:32:13 10° NE
IRS-P3 4.5 01:21:51 10° NNE 01:27:09 61° ESE 01:30:49 20° S
CZ-2D R/B 2.5 01:22:43 10° N 01:27:47 49° WNW 01:30:15 28° SW
Cosmos 1703 3.4 01:26:48 31° S 01:28:35 74° E 01:32:32 10° NNE
STARLINK-1254 4.5 01:26:17 10° NW 01:30:21 52° NNE 01:34:24 10° ESE
ADEOS II 2.2 01:25:21 10° NNE 01:30:37 71° ESE 01:34:07 21° S
ATLAS 2AS CENTAUR R/B 4.4 01:24:14 10° W 01:31:06 30° NNW 01:37:53 10° NNE
STARLINK-1231 4.3 01:31:17 10° NW 01:35:22 55° NNE 01:39:27 10° ESE
STARLINK-1228 3.2 01:33:48 10° WNW 01:37:02 47° SW 01:40:15 10° SSE
Resurs 1-4 Rocket 2.8 01:32:35 10° N 01:37:29 40° WNW 01:40:11 23° WSW
STARLINK-1234 4.0 01:35:13 10° WNW 01:41:17 10° SE 01:37:02 29° W
USA 81 4.4 01:36:20 27° SW 01:38:51 48° W 01:43:58 10° N
STARLINK-1212 2.7 01:36:32 10° WNW 01:39:37 64° SW 01:42:41 10° SE
STARLINK-1105 2.7 01:37:00 10° WNW 01:40:05 63° SW 01:43:08 10° SE
STARLINK-1232 4.2 01:36:15 10° NW 01:40:22 59° NNE 01:44:28 10° ESE
STARLINK-1247 2.7 01:37:55 10° WNW 01:41:01 62° SW 01:44:05 10° SE
Cosmos 1758 Rocket 3.6 01:39:23 30° SSW 01:41:22 61° W 01:45:42 10° N
STARLINK-1227 2.7 01:38:23 10° WNW 01:41:27 61° SW 01:44:29 10° SE
STARLINK-1226 2.8 01:39:14 10° WNW 01:42:19 60° SW 01:45:23 10° SE
ARIANE 5 R/B 3.0 01:37:44 10° NNE 01:42:44 55° E 01:46:54 14° S
STARLINK-1215 2.8 01:40:11 10° WNW 01:43:16 59° SW 01:46:20 10° SE
H-2A R/B 3.6 01:39:42 10° SE 01:43:40 37° ENE 01:47:44 10° N
NPP 4.3 01:39:54 10° N 01:44:55 41° WNW 01:47:57 22° SW
STARLINK-1217 2.8 01:41:57 10° WNW 01:45:01 56° SW 01:48:05 10° SE
STARLINK-1208 4.1 01:41:12 10° NW 01:45:19 64° NNE 01:49:27 10° ESE
STARLINK-1229 2.8 01:42:53 10° WNW 01:45:57 55° SW 01:48:59 10° SE
STARLINK-1270 2.9 01:43:44 10° WNW 01:46:48 54° SW 01:49:51 10° SE
STARLINK-1189 2.9 01:45:36 10° WNW 01:48:38 52° SW 01:51:40 10° SE
STARLINK-1188 2.9 01:46:28 10° WNW 01:49:31 51° SW 01:52:33 10° SE
STARLINK-1235 3.3 01:47:15 10° WNW 01:50:08 37° SW 01:53:02 10° SSE
STARLINK-1271 3.9 01:46:11 10° NW 01:50:20 69° NNE 01:54:28 10° ESE
STARLINK-1187 3.1 01:47:37 10° WNW 01:50:34 42° SW 01:53:32 10° SSE
Cosmos 1898 Rocket 3.5 01:45:21 10° NNW 01:50:41 70° WSW 01:55:57 10° S
Cosmos 1656 3.9 01:48:20 23° SW 01:51:54 60° WNW 01:57:30 10° NNE
STARLINK-1191 3.0 01:48:58 10° WNW 01:51:58 47° SW 01:54:57 10° SE
Lacrosse 4 Rocket 2.9 01:48:21 10° NNW 01:52:29 40° NE 01:56:28 10° SE
STARLINK-1221 3.0 01:49:50 10° WNW 01:52:50 46° SW 01:55:50 10° SE
STARLINK-1222 3.0 01:50:44 10° WNW 01:53:43 45° SW 01:56:42 10° SSE
CZ-4C R/B 2.1 01:50:43 22° SSW 01:53:57 73° ESE 01:59:46 10° NE
STARLINK-1214 3.1 01:51:40 10° WNW 01:54:38 44° SW 01:57:36 10° SSE
STARLINK-1154 3.8 01:51:10 10° NW 01:55:20 75° NE 01:59:28 10° ESE
Cosmos 468 Rocket 4.2 01:52:22 23° SW 01:55:30 56° WNW 02:00:34 10° NNE
IDEFIX/ARIANE 42P 3.8 01:51:10 10° NNE 01:56:05 38° E 02:00:58 10° SSE
SJ 16-02 1.6 01:51:50 10° NNW 01:56:05 47° WSW 01:59:17 17° S
Cosmos 2285 Rocket 4.1 01:49:50 10° NNW 01:56:16 87° ENE 02:02:35 10° SSE
Cosmos 1570 Rocket 4.1 01:53:00 18° SSW 01:57:01 80° ESE 02:02:21 10° NNE
Cosmos 1953 Rocket 3.6 01:54:38 20° SSW 01:57:40 75° W 02:02:08 10° N
Cosmos 2208 Rocket 4.2 01:55:43 16° S 01:59:55 70° ESE 02:05:12 10° NNE
Cosmos 2369 3.7 01:55:55 19° SSW 02:00:07 86° ESE 02:05:49 10° NNE
STARLINK-1197 3.7 01:56:08 10° NW 02:00:18 80° NE 02:04:27 10° ESE
Cosmos 1937 Rocket 3.4 01:55:42 10° NNW 02:00:57 79° WSW 02:06:13 10° SSE
NOSS 7 (H) 4.3 01:59:32 26° SW 02:01:09 63° NW 02:04:06 10° NNE
Meteor 2-10 Rocket 4.2 01:57:57 10° NNW 02:02:47 36° W 02:06:01 18° SSW
Cosmos 2360 4.4 01:58:24 15° SSW 02:03:05 69° ESE 02:08:46 10° NNE
STARLINK-1198 3.6 02:01:05 10° NW 02:05:15 87° NNE 02:09:24 10° SE
STARLINK-1199 3.5 02:06:06 10° NW 02:10:16 87° SSW 02:14:25 10° SE
Iridium 2 4.0 02:08:24 10° N 02:12:09 68° E 02:15:53 10° SSE
USA 129 3.6 02:12:54 10° NE 02:14:14 17° E 02:15:08 11° SE
STARLINK-1210 3.5 02:11:04 10° WNW 02:15:13 80° SW 02:19:22 10° SE
Cosmos 1814 Rocket 4.1 02:11:06 13° SSW 02:15:53 86° ESE 02:21:15 10° NNE
STARLINK-1320 4.0 02:14:52 14° W 02:17:15 37° NNW 02:20:11 10° NE
STARLINK-1322 4.0 02:15:11 14° W 02:17:36 36° NNW 02:20:32 10° NE
STARLINK-1324 4.0 02:15:32 13° W 02:17:57 36° NNW 02:20:53 10° NE
Cosmos 2219 4.2 02:13:27 10° NW 02:18:05 27° WSW 02:22:14 12° SSW
STARLINK-1294 4.1 02:15:47 13° W 02:18:14 36° NNW 02:21:11 10° NE
STARLINK-1261 4.1 02:16:09 13° W 02:18:37 36° NNW 02:21:32 10° NE
STARLINK-1325 4.1 02:16:30 13° W 02:18:58 36° NNW 02:21:54 10° NE
Cosmos 1980 Rocket 2.4 02:13:41 11° SSW 02:19:00 71° ESE 02:24:38 10° NNE
STARLINK-1333 4.1 02:16:48 13° W 02:19:16 36° NNW 02:22:12 10° NE
STARLINK-1334 4.1 02:17:07 13° W 02:19:37 35° NNW 02:22:32 10° NE
STARLINK-1326 4.1 02:17:28 13° W 02:19:58 35° NNW 02:22:53 10° NE
STARLINK-1219 3.5 02:16:03 10° WNW 02:20:12 74° SW 02:24:19 10° SE
STARLINK-1323 4.1 02:17:47 13° W 02:20:18 35° NNW 02:23:13 10° NE
STARLINK-1338 4.1 02:17:39 13° W 02:20:31 42° NNW 02:23:51 10° NE
STARLINK-1349 4.1 02:18:06 12° W 02:20:38 35° NNW 02:23:33 10° NE
STARLINK-1336 4.1 02:18:28 12° W 02:21:01 35° NNW 02:23:55 10° NE
CZ-4B R/B 4.3 02:19:01 10° ESE 02:21:07 17° ENE 02:23:13 10° NNE
STARLINK-1331 4.1 02:18:45 12° W 02:21:19 34° NNW 02:24:13 10° NE
Nadezhda 3 Rocket 4.4 02:15:17 10° N 02:21:33 70° E 02:27:50 10° SSE
STARLINK-1344 4.1 02:19:05 12° W 02:21:40 34° NNW 02:24:34 10° NE
STARLINK-1343 4.2 02:19:25 12° W 02:22:00 34° NNW 02:24:54 10° NE
STARLINK-1346 4.2 02:19:43 12° W 02:22:21 34° NNW 02:25:18 10° NE
STARLINK-1328 4.2 02:20:05 12° W 02:22:42 34° NNW 02:25:36 10° NE
STARLINK-1354 4.2 02:20:22 12° W 02:23:00 34° NNW 02:25:54 10° NE
ERS-2 2.2 02:19:45 10° S 02:23:20 55° WSW 02:26:58 10° NNW
STARLINK-1347 4.2 02:20:44 11° W 02:23:22 33° NNW 02:26:16 10° NE
STARLINK-1357 4.2 02:21:01 11° W 02:23:41 33° NNW 02:26:34 10° NE
STARLINK-1335 4.2 02:21:22 11° W 02:24:02 33° NNW 02:26:55 10° NE
STARLINK-1327 4.2 02:21:41 11° W 02:24:22 33° NNW 02:27:15 10° NE
STARLINK-1371 4.2 02:21:31 12° W 02:24:33 40° NNW 02:27:53 10° NE
STARLINK-1340 4.2 02:22:01 11° W 02:24:43 33° NNW 02:27:36 10° NE
STARLINK-1356 4.2 02:22:21 11° W 02:25:04 33° NNW 02:27:56 10° NE
STARLINK-1211 3.5 02:21:01 10° WNW 02:25:09 68° SW 02:29:16 10° SE
STARLINK-1345 4.2 02:22:41 11° W 02:25:24 33° NNW 02:28:17 10° NE
STARLINK-1355 4.3 02:22:59 11° W 02:25:44 32° NNW 02:28:36 10° NE
STARLINK-1321 4.3 02:23:18 11° W 02:26:05 32° NNW 02:28:56 10° NE
STARLINK-1358 4.3 02:23:39 10° W 02:26:26 32° NNW 02:29:18 10° NE
STARLINK-1341 4.2 02:23:29 11° W 02:26:36 39° NNW 02:29:56 10° NE
STARLINK-1332 4.3 02:23:57 10° W 02:26:45 32° NNW 02:29:36 10° NE
STARLINK-1348 4.3 02:24:18 10° W 02:27:06 32° NNW 02:29:58 10° NE
STARLINK-1330 4.3 02:24:36 10° W 02:27:26 32° NNW 02:30:17 10° NE
STARLINK-1363 4.3 02:24:56 10° W 02:27:46 31° NNW 02:30:37 10° NE
STARLINK-1337 4.3 02:25:16 10° W 02:28:06 31° NNW 02:30:57 10° NE
STARLINK-1342 4.3 02:25:37 10° W 02:28:27 31° NNW 02:31:18 10° NE
STARLINK-1374 4.3 02:25:26 10° W 02:28:40 38° NNW 02:31:59 10° NE
STARLINK-1364 4.3 02:25:58 10° W 02:28:47 31° NNW 02:31:38 10° NE
IRIDIUM 103 4.5 02:23:56 10° S 02:29:08 79° E 02:34:22 10° N
STARLINK-1376 4.3 02:26:19 10° W 02:29:09 31° NNW 02:31:59 10° NE
STARLINK-1360 4.3 02:26:35 10° W 02:29:25 31° NNW 02:32:15 10° NE
STARLINK-1361 4.4 02:27:02 10° W 02:29:51 31° NNW 02:32:41 10° NE
STARLINK-1367 4.4 02:27:16 10° W 02:30:08 31° NNW 02:33:00 10° NE
STARLINK-1245 3.6 02:26:03 10° WNW 02:30:08 62° SW 02:34:13 10° SE
STARLINK-1366 4.4 02:27:40 10° W 02:30:30 30° NNW 02:33:19 10° NE
STARLINK-1339 4.3 02:27:28 10° W 02:30:45 37° NNW 02:34:03 10° NE
SL-4 R/B 4.0 02:27:42 10° WNW 02:31:56 30° N 02:36:00 10° ENE
STARLINK-1377 4.4 02:29:35 10° W 02:32:52 36° NNW 02:36:09 10° NE
Cosmos 2297 Rocket 3.2 02:29:06 10° NW 02:33:36 25° WSW 02:38:05 10° SSW
STARLINK-1353 4.4 02:31:31 10° W 02:34:44 35° NNW 02:37:58 10° NE
STARLINK-1233 3.7 02:31:01 10° WNW 02:35:05 56° SW 02:39:09 10° SE
STARLINK-1375 4.5 02:33:23 10° W 02:36:37 34° NNW 02:39:50 10° NE
Cosmos 1076 Rocket 4.4 02:32:35 10° SSE 02:36:47 50° E 02:41:01 10° NNE
Cosmos 540 Rocket 3.7 02:32:22 11° SW 02:37:11 57° WNW 02:42:16 10° NNE
Cosmos 2082 4.0 02:32:11 10° NW 02:37:35 46° WSW 02:42:54 10° S
STARLINK-1204 3.7 02:36:02 10° WNW 02:40:04 51° SW 02:44:05 10° SE
Landsat 5 3.6 02:35:42 10° S 02:40:10 74° WSW 02:44:43 10° NNW
Cosmos 2278 3.8 02:36:09 10° SW 02:41:43 65° WNW 02:47:22 10° NNE
CZ-2D R/B 3.8 02:39:09 10° N 02:43:08 50° WNW 02:47:12 10° SSW
Meteor 1-28 Rocket 3.9 02:39:48 10° SSW 02:43:15 34° W 02:46:44 10° NNW
SL-16 R/B 4.3 02:42:13 10° WSW 02:43:53 11° W 02:45:34 10° WNW
USA 234 3.5 02:37:25 10° NE 02:43:57 67° SE 02:50:26 10° SW
STARLINK-1238 3.8 02:41:01 10° WNW 02:45:00 47° SW 02:48:58 10° SSE
Cosmos 2074 Rocket 4.5 02:40:56 10° SSW 02:46:56 46° WNW 02:52:59 10° N
IRIDIUM 106 4.3 02:42:14 10° S 02:47:26 72° W 02:52:39 10° N
ATLAS CENTAUR R/B 3.6 02:44:51 10° WNW 02:48:35 31° SW 02:56:31 10° SSE
Cosmos 841 Rocket 4.1 02:44:35 10° SW 02:49:34 42° WNW 02:54:34 10° N
Cosmos 2263 Rocket 3.1 02:44:12 10° NNW 02:49:43 54° ENE 02:55:10 10° SE
Cosmos 2322 Rocket 3.9 02:44:55 10° SSE 02:49:46 31° ESE 02:54:38 10° NE
STARLINK-1201 4.0 02:46:03 10° WNW 02:49:58 43° SW 02:53:53 10° SSE
Cosmos 372 Rocket 4.0 02:46:11 10° NNW 02:51:15 63° WSW 02:56:19 10° S
Cosmos 1892 3.0 02:49:03 10° S 02:52:52 72° E 02:56:42 10° NNE
STARLINK-1206 4.1 02:51:03 10° WNW 02:54:56 39° SW 02:58:47 10° SSE
Cosmos 1869 3.2 02:51:33 10° NNW 02:55:26 67° W 02:59:15 10° S
Cosmos 1400 Rocket 3.9 02:52:26 10° NW 02:55:55 27° W 02:59:24 10° SSW
Cosmos 2221 2.6 02:52:34 10° NNW 02:56:49 58° W 03:01:05 10° S
PSLV R/B 4.0 02:52:49 10° NNE 02:57:02 64° ESE 03:01:11 10° S
In-Cosmos 22 Rocket 4.4 02:51:25 10° S 02:57:11 87° E 03:02:51 10° N
STARLINK-1216 4.4 02:53:12 10° NW 02:57:18 58° NNE 03:01:24 10° ESE
CZ-4C R/B 3.8 02:55:58 10° SSW 02:59:13 33° W 03:02:33 10° NNW
STARLINK-1205 4.2 02:56:05 10° WNW 02:59:53 36° SW 03:03:40 10° SSE
